Date String (YYYY-MM-DD hh:mm:ss) UTC,Instrument flags,absolute air pressure of the measurement (hPa),sample flow rate (lpm),inlet stack bypass flow (lpm),air temperature of the measurement (°C),ambient temperature measured by the external sensor (°C),aerosol sample conditioner tube jacket temperature (°C),OPC LED temperature (°C),internal box temperature (°C),relative humidity of the measurement (%),span deviation,mass concentration of particles derived from Lorenz-Mie calculation of OPC scattering (μg/m³),mass concentration of particles derived from Lorenz-Mie calculation of OPC scattering (μg/m³),mass concentration of particles derived from Lorenz-Mie calculation of OPC scattering (μg/m³)
DateTimeUTC,F1_M11,P_M11,Q1_M11,Q2_M11,T1_M11,T2_M11,T3_M11,T4_M11,T5_M11,U1_M11,ZSPAN_M11,X2_M11,X0_M11,X1_M11
2024-06-04 17:00:00,SystemResetWarning,0824.7,5.00,000.00,029.2,027.5,000.0,037.9,030.7,017.8,0000.0,0000.96,0004.05,0000.40
2024-06-04 17:01:00,SystemResetWarning,0824.7,5.00,000.00,029.2,027.8,000.0,037.8,030.8,018.5,0000.0,0000.98,0004.11,0000.40
2024-06-04 17:02:00,SystemResetWarning,0824.7,5.00,000.00,029.3,028.0,000.0,037.8,030.9,017.5,0000.0,0001.06,0004.31,0000.40
2024-06-04 17:03:00,SystemResetWarning,0824.6,4.99,000.00,029.3,028.3,000.0,037.8,031.0,017.4,0000.0,0001.08,0004.37,0000.39
2024-06-04 17:04:00,SystemResetWarning,0824.5,5.00,000.00,029.4,028.5,000.0,037.8,031.1,016.9,0000.0,0001.15,0006.07,0000.39
2024-06-04 17:05:00,SystemResetWarning,0824.7,5.00,000.00,029.4,028.6,000.0,037.8,031.2,017.2,0000.0,0001.22,0005.46,0000.40
2024-06-04 17:06:00,SystemResetWarning,0824.7,5.00,000.00,029.5,028.7,000.0,037.7,031.3,017.5,0000.0,0001.20,0005.41,0000.40
2024-06-04 17:07:00,SystemResetWarning,0824.7,5.00,000.00,029.5,028.9,000.0,037.8,031.3,017.0,0000.0,0001.16,0005.26,0000.41
2024-06-04 17:08:00,SystemResetWarning,0824.8,5.00,000.00,029.6,029.0,000.0,037.8,031.4,016.5,0000.0,0001.12,0004.47,0000.41
2024-06-04 17:09:00,SystemResetWarning,0824.8,5.01,000.00,029.6,029.1,000.0,037.8,031.4,017.0,0000.0,0001.07,0004.12,0000.41
2024-06-04 17:10:00,SystemResetWarning,0824.7,5.00,000.00,029.7,029.1,000.0,037.8,031.5,016.9,0000.0,0001.06,0004.15,0000.40
2024-06-04 17:11:00,SystemResetWarning,0824.7,4.99,000.00,029.7,029.2,000.0,037.8,031.5,016.0,0000.0,0001.03,0005.02,0000.40
2024-06-04 17:12:00,SystemResetWarning,0824.7,5.00,000.00,029.8,029.3,000.0,037.9,031.6,015.9,0000.0,0001.03,0004.97,0000.40
2024-06-04 17:13:00,SystemResetWarning,0824.7,5.00,000.00,029.8,029.4,000.0,037.9,031.7,016.3,0000.0,0000.95,0004.78,0000.41
2024-06-04 17:14:00,SystemResetWarning,0824.7,5.00,000.00,029.9,029.4,000.0,037.9,031.7,016.6,0000.0,0000.97,0005.41,0000.43
2024-06-04 17:15:00,SystemResetWarning,0824.7,4.99,000.00,029.9,029.5,000.0,038.0,031.8,016.0,0000.0,0000.91,0003.67,0000.44
2024-06-04 17:16:00,SystemResetWarning,0824.8,5.00,000.00,030.0,029.5,000.0,038.0,031.8,015.8,0000.0,0000.83,0003.37,0000.45
2024-06-04 17:17:00,SystemResetWarning,0824.7,5.00,000.00,030.0,029.6,000.0,038.1,031.8,015.5,0000.0,0000.80,0003.29,0000.46
2024-06-04 17:18:00,SystemResetWarning,0824.6,5.00,000.00,030.1,029.5,000.0,038.1,031.8,015.6,0000.0,0000.81,0003.45,0000.46
2024-06-04 17:19:00,SystemResetWarning,0824.5,5.00,000.00,029.9,027.5,000.0,038.2,030.8,016.0,0000.0,0000.89,0004.88,0000.48
2024-06-04 17:20:00,SystemResetWarning,0824.4,5.00,000.00,029.4,025.6,000.0,038.2,029.9,016.8,0000.0,0000.96,0007.16,0000.50
2024-06-04 17:21:00,SystemResetWarning,0824.4,5.02,000.00,029.2,025.9,000.0,038.1,029.9,016.3,0000.0,0001.04,0007.64,0000.52
2024-06-04 17:22:00,SystemResetWarning,0824.4,4.99,000.00,029.1,026.4,000.0,038.0,030.2,016.4,0000.0,0001.06,0006.99,0000.54
2024-06-04 17:23:00,SystemResetWarning,0824.4,5.00,000.00,029.1,026.8,000.0,037.9,030.4,016.5,0000.0,0001.10,0007.62,0000.55
2024-06-04 17:24:00,SystemResetWarning,0824.5,5.00,000.00,029.1,027.2,000.0,037.8,030.6,016.3,0000.0,0001.24,0008.13,0000.58
2024-06-04 17:25:00,SystemResetWarning,0824.4,5.00,000.00,029.2,027.6,000.0,037.8,030.7,016.2,0000.0,0001.59,0009.97,0000.60
2024-06-04 17:26:00,SystemResetWarning,0824.4,4.99,000.00,029.2,027.9,000.0,037.8,030.8,015.9,0000.0,0001.64,0010.32,0000.60
2024-06-04 17:27:00,SystemResetWarning,0824.4,5.00,000.00,029.2,028.1,000.0,037.7,030.9,016.3,0000.0,0001.67,0010.38,0000.61
2024-06-04 17:28:00,SystemResetWarning,0824.3,5.00,000.00,029.3,028.3,000.0,037.7,031.0,016.2,0000.0,0001.71,0010.53,0000.62
2024-06-04 17:29:00,SystemResetWarning,0824.7,5.00,000.00,029.3,028.5,000.0,037.7,031.1,016.0,0000.0,0001.80,0011.29,0000.63
2024-06-04 17:30:00,SystemResetWarning,0824.7,5.00,000.00,029.4,028.6,000.0,037.7,031.1,016.2,0000.0,0001.76,0012.47,0000.63
2024-06-04 17:31:00,SystemResetWarning,0824.6,5.00,000.00,029.4,028.8,000.0,037.7,031.2,016.5,0000.0,0001.74,0011.30,0000.63
2024-06-04 17:32:00,SystemResetWarning,0824.4,4.99,000.00,029.5,028.9,000.0,037.8,031.3,015.5,0000.0,0001.70,0011.23,0000.63
2024-06-04 17:33:00,SystemResetWarning,0824.6,4.99,000.00,029.5,029.0,000.0,037.8,031.3,015.1,0000.0,0001.75,0011.35,0000.63
2024-06-04 17:34:00,SystemResetWarning,0824.7,4.99,000.00,029.6,029.1,000.0,037.8,031.4,015.1,0000.0,0001.79,0010.99,0000.65
2024-06-04 17:35:00,SystemResetWarning,0824.7,5.01,000.00,029.6,029.1,000.0,037.8,031.4,015.1,0000.0,0001.72,0010.60,0000.64
2024-06-04 17:36:00,SystemResetWarning,0824.7,5.01,000.00,029.7,029.2,000.0,037.8,031.5,015.4,0000.0,0001.34,0008.31,0000.62
2024-06-04 17:37:00,SystemResetWarning,0824.7,5.00,000.00,029.7,029.3,000.0,037.9,031.5,015.8,0000.0,0001.30,0007.92,0000.63
2024-06-04 17:38:00,SystemResetWarning,0824.8,5.00,000.00,029.8,029.3,000.0,037.9,031.6,015.5,0000.0,0001.29,0007.90,0000.64
2024-06-04 17:39:00,SystemResetWarning,0824.7,4.99,000.00,029.8,029.4,000.0,037.9,031.7,015.5,0000.0,0001.28,0007.83,0000.64
2024-06-04 17:40:00,SystemResetWarning,0824.7,5.00,000.00,029.9,029.4,000.0,038.0,031.7,015.4,0000.0,0001.24,0007.68,0000.64
2024-06-04 17:41:00,SystemResetWarning,0824.6,5.00,000.00,029.9,029.5,000.0,038.0,031.7,014.7,0000.0,0001.17,0003.93,0000.64
2024-06-04 17:42:00,SystemResetWarning,0824.6,5.01,000.00,030.0,029.5,000.0,038.0,031.8,014.8,0000.0,0001.36,0004.45,0000.65
2024-06-04 17:43:00,SystemResetWarning,0824.6,5.01,000.00,030.0,029.6,000.0,038.1,031.8,015.0,0000.0,0001.43,0004.47,0000.67
2024-06-04 17:44:00,SystemResetWarning,0824.5,4.99,000.00,030.0,028.9,000.0,038.2,031.5,015.2,0000.0,0001.39,0004.62,0000.68
2024-06-04 17:45:00,SystemResetWarning,0824.6,5.00,000.00,029.6,026.3,000.0,038.2,030.3,015.3,0000.0,0001.35,0004.99,0000.69
2024-06-04 17:46:00,SystemResetWarning,0824.7,5.02,000.00,029.2,025.5,000.0,038.2,029.8,016.0,0000.0,0001.34,0005.53,0000.69
2024-06-04 17:47:00,SystemResetWarning,0824.8,4.98,000.00,029.1,026.1,000.0,038.1,030.0,015.9,0000.0,0001.34,0006.28,0000.70
2024-06-04 17:48:00,SystemResetWarning,0824.7,5.00,000.00,029.0,026.5,000.0,037.9,030.2,016.1,0000.0,0001.41,0007.40,0000.70
2024-06-04 17:49:00,SystemResetWarning,0824.8,5.01,000.00,029.1,027.0,000.0,037.8,030.5,016.6,0000.0,0001.49,0007.66,0000.70
2024-06-04 17:50:00,SystemResetWarning,0824.8,5.01,000.00,029.1,027.4,000.0,037.7,030.6,016.5,0000.0,0002.44,0018.42,0000.75
2024-06-04 17:51:00,SystemResetWarning,0824.8,5.01,000.00,029.1,027.7,000.0,037.7,030.8,016.2,0000.0,0002.60,0020.32,0000.76
2024-06-04 17:52:00,SystemResetWarning,0824.8,5.00,000.00,029.2,028.0,000.0,037.7,030.9,015.3,0000.0,0002.63,0020.28,0000.77
2024-06-04 17:53:00,SystemResetWarning,0824.8,5.00,000.00,029.2,028.2,000.0,037.7,031.0,016.0,0000.0,0002.52,0019.93,0000.76
2024-06-04 17:54:00,SystemResetWarning,0824.8,5.00,000.00,029.3,028.4,000.0,037.7,031.0,015.6,0000.0,0002.35,0019.54,0000.75
2024-06-04 17:55:00,SystemResetWarning,0824.7,5.00,000.00,029.3,028.5,000.0,037.7,031.1,015.3,0000.0,0002.40,0019.98,0000.75
2024-06-04 17:56:00,SystemResetWarning,0824.8,5.01,000.00,029.4,028.7,000.0,037.7,031.2,015.5,0000.0,0002.42,0020.10,0000.75
2024-06-04 17:57:00,SystemResetWarning,0824.8,5.00,000.00,029.5,028.8,000.0,037.7,031.3,015.2,0000.0,0002.44,0019.77,0000.76
2024-06-04 17:58:00,SystemResetWarning,0824.7,5.00,000.00,029.5,028.9,000.0,037.7,031.3,015.2,0000.0,0002.43,0019.54,0000.76
2024-06-04 17:59:00,SystemResetWarning,0824.7,5.00,000.00,029.6,029.0,000.0,037.7,031.4,014.9,0000.0,0002.41,0018.96,0000.76
